Sigfox identifier Datetime Temperature Humidity SNR
003BD30C 2018-10-09 08:52:45 20.5 40 17.7
003BD30C 2018-10-09 06:40:30 20.4 40 17.7
003BD30C 2018-10-09 05:34:24 20.5 40 17.8
003BD30C 2018-10-09 01:09:55 20.5 39 17.9
003BD30C 2018-10-09 00:03:42 20.5 39 17.9
003BD30C 2018-10-08 22:57:34 20.5 39 18
003BD30C 2018-10-08 21:51:28 20.5 39 18
003BD30C 2018-10-08 19:39:16 20.4 38 18
003BD30C 2018-10-08 16:20:47 20.3 38 18.1
003BD30C 2018-10-08 15:14:35 20.3 37 18
003BD30C 2018-10-08 14:08:27 20.3 37 18
003BD30C 2018-10-08 13:02:19 20.5 37 17.9
003BD30C 2018-10-08 11:56:11 20.5 37 18
003BD30C 2018-10-08 10:50:05 20.5 36 18
003BD30C 2018-10-08 09:43:59 20.5 36 18
003BD30C 2018-10-08 08:37:55 20.5 37 18
003BD30C 2018-10-08 07:31:51 20.5 37 13.6
003BD30C 2018-10-08 06:25:44 20.5 37 13.6
003BD30C 2018-10-08 03:07:21 20.5 38 13.7
003BD30C 2018-10-08 02:01:15 20.5 38 13.8
003BD30C 2018-10-08 00:55:12 20.5 38 13.7
003BD30C 2018-10-07 23:49:03 20.5 39 13.7
003BD30C 2018-10-07 22:42:57 20.6 39 13.9
003BD30C 2018-10-07 21:36:49 20.7 39 13.9
003BD30C 2018-10-07 20:30:42 20.7 39 13.7
003BD30C 2018-10-07 19:24:28 20.7 39 14
003BD30C 2018-10-07 18:18:19 20.6 39 13.9
003BD30C 2018-10-07 17:12:02 20.7 39 13.6
003BD30C 2018-10-07 16:05:50 20.7 39 13.4
003BD30C 2018-10-07 14:59:39 20.6 39 13.7
003BD30C 2018-10-07 13:53:33 20.7 39 13.4
003BD30C 2018-10-07 12:47:21 20.7 40 13.3
003BD30C 2018-10-07 11:41:17 20.6 40 13.1
003BD30C 2018-10-07 10:35:01 20.7 40 13.1
003BD30C 2018-10-07 09:28:52 20.7 40 13
003BD30C 2018-10-07 08:22:43 20.7 40 13
003BD30C 2018-10-07 07:16:36 20.7 40 13
003BD30C 2018-10-07 06:10:30 20.7 40 13.1
003BD30C 2018-10-07 05:04:17 20.8 40 13.5
003BD30C 2018-10-07 03:58:06 20.8 41 14.1
003BD30C 2018-10-07 02:51:54 20.9 41 14.3
003BD30C 2018-10-07 01:45:45 20.9 41 14.4
003BD30C 2018-10-07 00:39:34 20.9 41 14.5
003BD30C 2018-10-06 23:33:28 20.9 41 14.5
003BD30C 2018-10-06 21:21:05 20.9 41 14.5
003BD30C 2018-10-06 20:14:54 20.9 41 14.6
003BD30C 2018-10-06 19:08:46 20.9 41 14.5
003BD30C 2018-10-06 18:02:38 20.9 41 14.5
003BD30C 2018-10-06 16:56:27 20.9 41 14.3
003BD30C 2018-10-06 14:44:11 20.9 41 14.4
003BD30C 2018-10-06 13:37:59 20.9 41 14.3
003BD30C 2018-10-06 12:31:46 20.9 41 14.4
003BD30C 2018-10-06 11:25:35 21 41 14.5
003BD30C 2018-10-06 09:13:12 21 42 14.7
003BD30C 2018-10-06 07:00:48 21.1 42 14.5
003BD30C 2018-10-06 05:54:35 21.1 42 14.6
003BD30C 2018-10-06 04:48:22 21.1 43 14.7
003BD30C 2018-10-06 03:42:08 21.1 43 15
003BD30C 2018-10-06 02:35:59 21 43 14.8
003BD30C 2018-10-06 01:29:49 21.2 43 15.2
003BD30C 2018-10-06 00:23:36 21.1 43 15.6
003BD30C 2018-10-05 23:17:29 21.3 44 15.9
003BD30C 2018-10-05 22:11:15 21.3 44 16
003BD30C 2018-10-05 21:05:04 21.3 44 15.8
003BD30C 2018-10-05 19:58:46 21.3 44 14.4
003BD30C 2018-10-05 18:52:31 21.4 44 13.1
003BD30C 2018-10-05 17:46:18 21.5 45 13.6
003BD30C 2018-10-05 16:39:58 21.7 45 14
003BD30C 2018-10-05 15:33:36 21.7 54 0